DW4554 Weather Reports


time (UTC)temp
C
wind
direction
speed
KPH
gust
KPH
rain 1hr
cm
rain 24hr
cm
rain mn
cm
humidity
%
barometer
mb
20220812000404 13 64 0.0 0.0 0.00 0.00 0.00 79 1018.4
20220811235905 13 64 0.0 0.0 0.00 0.00 0.00 79 1018.5
20220811235404 13 64 0.0 0.0 0.00 0.00 0.00 78 1018.5
20220811234904 14 64 0.0 1.6 0.00 0.00 0.00 78 1018.5
20220811234404 14 64 0.0 0.0 0.00 0.00 0.00 78 1018.4
20220811233904 14 64 1.6 3.2 0.00 0.00 0.00 78 1018.4
20220811231404 15 64 1.6 4.8 0.00 0.00 0.00 76 1018.6
20220811230904 15 64 1.6 3.2 0.00 0.00 0.00 75 1018.6
20220811230404 15 64 1.6 3.2 0.00 0.00 0.00 75 1018.6
20220811225904 15 64 1.6 3.2 0.00 0.00 0.00 74 1018.7
20220811222904 15 64 1.6 3.2 0.00 0.00 0.00 72 1018.9
20220811221904 16 64 1.6 3.2 0.00 0.00 0.00 72 1018.8
20220811220904 16 64 0.0 0.0 0.00 0.00 0.00 71 1018.8
20220811211404 17 44 3.2 8.0 0.00 0.00 0.00 66 1018.8
20220811210904 17 25 1.6 8.0 0.00 0.00 0.00 65 1018.8
20220811210404 17 88 0.0 0.0 0.00 0.00 0.00 64 1018.7
20220811203904 18 88 0.0 1.6 0.00 0.00 0.00 63 1018.5
20220811200904 18 58 0.0 3.2 0.00 0.00 0.00 60 1018.3
20220811195404 18 57 1.6 9.7 0.00 0.00 0.00 60 1018.3
20220811194904 18 63 4.8 9.7 0.00 0.00 0.00 60 1018.3
20220811194404 18 53 4.8 8.0 0.00 0.00 0.00 59 1018.3
20220811193404 19 44 8.0 16.1 0.00 0.00 0.00 59 1018.4
20220811192404 19 56 3.2 9.7 0.00 0.00 0.00 59 1018.6
20220811185904 20 55 8.0 19.3 0.00 0.00 0.00 57 1018.6
20220811184904 20 54 4.8 12.9 0.00 0.00 0.00 56 1018.5
20220811184404 20 53 8.0 12.9 0.00 0.00 0.00 56 1018.6
20220811183404 20 48 8.0 16.1 0.00 0.00 0.00 56 1018.6
20220811182904 20 43 11.3 20.9 0.00 0.00 0.00 56 1018.5
20220811181904 21 46 11.3 20.9 0.00 0.00 0.00 55 1018.5
20220811180904 21 43 11.3 22.5 0.00 0.00 0.00 54 1018.5
20220811180403 22 37 14.5 29.0 0.00 0.00 0.00 53 1018.4
20220811175404 22 31 12.9 32.2 0.00 0.00 0.00 52 1018.4
20220811174404 23 26 8.0 22.5 0.00 0.00 0.00 49 1018.3
20220811173404 23 41 8.0 32.2 0.00 0.00 0.00 47 1018.1
20220811171405 24 44 11.3 19.3 0.00 0.00 0.00 46 1017.7
20220811170905 24 67 8.0 19.3 0.00 0.00 0.00 46 1017.6
20220811170404 24 23 6.4 12.9 0.00 0.00 0.00 45 1017.6
20220811165904 25 28 9.7 16.1 0.00 0.00 0.00 45 1017.6
20220811165404 25 35 6.4 12.9 0.00 0.00 0.00 44 1017.6
20220811164404 25 38 9.7 22.5 0.00 0.00 0.00 43 1017.7
20220811162904 26 40 4.8 16.1 0.00 0.00 0.00 40 1017.6
20220811161905 26 41 8.0 12.9 0.00 0.00 0.00 39 1017.6
20220811161404 26 27 11.3 19.3 0.00 0.00 0.00 38 1017.6
20220811160404 27 30 11.3 19.3 0.00 0.00 0.00 39 1017.6
20220811155904 27 38 11.3 22.5 0.00 0.00 0.00 39 1017.7
20220811154904 27 47 9.7 19.3 0.00 0.00 0.00 38 1017.8
20220811153404 27 29 12.9 20.9 0.00 0.00 0.00 41 1017.9
20220811152404 27 43 12.9 25.7 0.00 0.00 0.00 39 1017.9
20220811151904 27 30 11.3 22.5 0.00 0.00 0.00 38 1017.8
20220811151404 27 50 11.3 24.1 0.00 0.00 0.00 37 1017.9
20220811145904 27 26 9.7 20.9 0.00 0.00 0.00 38 1017.9
20220811145403 28 46 11.3 22.5 0.00 0.00 0.00 37 1017.9
20220811144404 28 20 8.0 25.7 0.00 0.00 0.00 37 1018.0
20220811143404 28 16 9.7 24.1 0.00 0.00 0.00 37 1018.0
20220811142904 28 15 9.7 19.3 0.00 0.00 0.00 38 1018.0
20220811141904 27 22 16.1 32.2 0.00 0.00 0.00 41 1018.1
20220811141404 27 21 9.7 19.3 0.00 0.00 0.00 43 1018.0
20220811140904 27 33 6.4 16.1 0.00 0.00 0.00 43 1018.1
20220811140404 27 21 11.3 20.9 0.00 0.00 0.00 41 1018.2
20220811135904 27 26 9.7 19.3 0.00 0.00 0.00 40 1018.2
20220811135404 27 10 8.0 19.3 0.00 0.00 0.00 42 1018.4
20220811134404 27 39 12.9 25.7 0.00 0.00 0.00 38 1018.3
20220811131905 26 63 11.3 22.5 0.00 0.00 0.00 36 1018.5
20220811130904 26 51 9.7 19.3 0.00 0.00 0.00 36 1018.6
20220811125404 27 16 9.7 20.9 0.00 0.00 0.00 37 1018.6
20220811124904 27 35 11.3 24.1 0.00 0.00 0.00 37 1018.7
20220811124404 27 52 16.1 27.4 0.00 0.00 0.00 37 1018.7
20220811123904 27 34 16.1 32.2 0.00 0.00 0.00 38 1018.7
20220811123404 27 38 9.7 22.5 0.00 0.00 0.00 37 1018.7
20220811121404 27 40 8.0 27.4 0.00 0.00 0.00 42 1018.9
20220811120904 26 34 14.5 32.2 0.00 0.00 0.00 41 1018.9
20220811120404 26 23 11.3 19.3 0.00 0.00 0.00 42 1019.0
20220811115904 26 32 11.3 19.3 0.00 0.00 0.00 42 1019.1
20220811115404 26 44 11.3 20.9 0.00 0.00 0.00 40 1019.1
20220811114904 25 19 11.3 19.3 0.00 0.00 0.00 44 1019.2
20220811114404 25 51 11.3 20.9 0.00 0.00 0.00 44 1019.2
20220811111404 25 26 8.0 16.1 0.00 0.00 0.00 49 1019.4
20220811105404 25 42 11.3 25.7 0.00 0.00 0.00 47 1019.6
20220811102404 26 54 12.9 32.2 0.00 0.00 0.00 47 1019.9
20220811100904 26 23 14.5 25.7 0.00 0.00 0.00 48 1019.9
20220811100404 26 21 14.5 25.7 0.00 0.00 0.00 48 1020.0
20220811095904 26 22 16.1 35.4 0.00 0.00 0.00 48 1020.0
20220811095404 26 25 14.5 33.8 0.00 0.00 0.00 48 1020.0
20220811094404 25 33 9.7 22.5 0.00 0.00 0.00 49 1020.1
20220811090404 24 24 11.3 22.5 0.00 0.00 0.00 51 1020.4
20220811083404 23 47 8.0 12.9 0.00 0.00 0.00 53 1020.4
20220811082404 23 32 9.7 20.9 0.00 0.00 0.00 53 1020.5
20220811081904 23 30 9.7 19.3 0.00 0.00 0.00 53 1020.6
20220811075404 22 37 8.0 19.3 0.00 0.00 0.00 57 1020.7
20220811074904 22 45 9.7 19.3 0.00 0.00 0.00 58 1020.8
20220811074404 21 41 9.7 20.9 0.00 0.00 0.00 60 1020.7
20220811073904 21 36 9.7 16.1 0.00 0.00 0.00 61 1020.8
20220811070404 17 39 9.7 19.3 0.00 0.00 0.00 77 1021.0
20220811063404 14 343 0.0 1.6 0.00 0.00 0.00 89 1021.1
20220811062404 13 45 0.0 0.0 0.00 0.00 0.00 90 1021.3
20220811061904 13 45 0.0 0.0 0.00 0.00 0.00 90 1021.3
20220811061404 12 45 0.0 0.0 0.00 0.00 0.00 90 1021.2
20220811060904 12 45 0.0 1.6 0.00 0.00 0.00 90 1021.2
20220811055404 12 45 0.0 0.0 0.00 0.00 0.00 90 1021.3
20220811054904 11 45 0.0 0.0 0.00 0.00 0.00 91 1021.4
20220811053904 11 45 0.0 0.0 0.00 0.00 0.00 90 1021.3
20220811053404 11 45 0.0 0.0 0.00 0.00 0.00 90 1021.3
20220811051404 11 45 0.0 0.0 0.00 0.00 0.00 89 1021.2
20220811050904 10 45 0.0 0.0 0.00 0.00 0.00 88 1021.2
20220811045904 10 45 0.0 0.0 0.00 0.00 0.00 88 1021.2
20220811045404 10 45 0.0 0.0 0.00 0.00 0.00 88 1021.2
20220811042904 10 45 0.0 0.0 0.00 0.00 0.00 87 1021.1
20220811041904 10 45 0.0 0.0 0.00 0.00 0.00 87 1021.2
20220811041404 10 45 0.0 0.0 0.00 0.00 0.00 87 1021.2
20220811040905 10 45 0.0 3.2 0.00 0.00 0.00 87 1021.1
20220811040404 10 56 0.0 0.0 0.00 0.00 0.00 87 1021.2
20220811034904 11 56 0.0 0.0 0.00 0.00 0.00 86 1021.2
20220811034404 11 56 0.0 0.0 0.00 0.00 0.00 86 1021.2
20220811030904 11 56 0.0 0.0 0.00 0.00 0.00 85 1021.1
20220811025904 11 56 0.0 0.0 0.00 0.00 0.00 85 1021.2
20220811025404 11 56 0.0 0.0 0.00 0.00 0.00 84 1021.1
20220811024404 11 56 0.0 0.0 0.00 0.00 0.00 84 1021.1
20220811022904 11 56 0.0 0.0 0.00 0.00 0.00 84 1021.0
20220811022404 12 56 0.0 0.0 0.00 0.00 0.00 84 1021.0
20220811021904 12 56 0.0 0.0 0.00 0.00 0.00 83 1021.1
20220811020904 12 56 0.0 0.0 0.00 0.00 0.00 83 1021.1
20220811015904 12 56 0.0 1.6 0.00 0.00 0.00 83 1021.2
20220811015404 12 56 0.0 3.2 0.00 0.00 0.00 83 1021.2
20220811014904 12 56 0.0 3.2 0.00 0.00 0.00 83 1021.2
20220811013904 12 56 0.0 0.0 0.00 0.00 0.00 82 1021.3
20220811013404 12 56 0.0 0.0 0.00 0.00 0.00 82 1021.3
20220811012904 12 56 1.6 3.2 0.00 0.00 0.00 82 1021.3
20220811012403 12 56 1.6 3.2 0.00 0.00 0.00 82 1021.3
20220811011904 12 56 0.0 0.0 0.00 0.00 0.00 81 1021.3
20220811010904 13 56 0.0 0.0 0.00 0.00 0.00 81 1021.3
20220811005903 13 56 0.0 0.0 0.00 0.00 0.00 80 1021.4
20220811002904 13 56 0.0 0.0 0.00 0.00 0.00 79 1021.4